Regional Weather Roundup
Issued by NWS Mt. Holly, NJ

Home | Current Version | Previous Version | Text Only | Print | Product List | Glossary On
Versions: 1 2 3 4 5 6 7 8 9 10 11 12 13 14 15 16 17 18 19 20 21 22 23 24 25 26 27
000
ASUS41 KPHI 210613
RWRPHI

REGIONAL WEATHER ROUNDUP
NATIONAL WEATHER SERVICE MOUNT HOLLY NJ
200 AM EDT SAT APR 21 2018

NOTE:  "FAIR" INDICATES FEW OR NO CLOUDS BELOW 12,000 FEET WITH NO
SIGNIFICANT WEATHER AND/OR OBSTRUCTIONS TO VISIBILITY.

 * = STATION DOES NOT REPORT PRECIPITATION (E.G. RAIN, SNOW, ETC.)
        OR FOG.

NJZ015>026-210700-
SOUTHERN NEW JERSEY

CITY           SKY/WX    TMP DP  RH WIND       PRES   REMARKS
POMONA         FAIR      37  25  61 N8        30.39F WCI  31
6HR MIN TEMP:  37; 6HR MAX TEMP:  50;

WILDWOOD*      FAIR      41  25  53 N9        30.42R
MILLVILLE      FAIR      39  24  55 N5        30.40S
WRIGHTSTOWN    FAIR      36  24  60 W3        30.37S
MOUNT HOLLY    FAIR      34  26  72 CALM      30.40F
TRENTON        FAIR      37  24  59 CALM      30.39F
6HR MIN TEMP:  37; 6HR MAX TEMP:  45;


$$
NJZ001>014-210700-
NORTHERN NEW JERSEY

CITY           SKY/WX    TMP DP  RH WIND       PRES   REMARKS
SUSSEX         FAIR      27  23  85 CALM      30.37S
ANDOVER*         N/A     30  25  81 CALM      30.37F
MORRISTOWN     FAIR      37  25  60 CALM      30.38S
NEWARK         FAIR      40  24  53 N6        30.38S
TETERBORO      FAIR      39  24  55 N12       30.37S WCI  32
CALDWELL       FAIR      39  24  55 VRB5      30.38S
SOMERVILLE     FAIR      31  26  82 NW3       30.37F
ALLAIRE*       FAIR      36  24  62 NW3       30.38F
TOMS RIVER*    FAIR      34  24  67 NW3       30.39F

$$
PAZ043-044-047-054-055-060>062-066>071-210700-
EASTERN PENNSYLVANIA

CITY           SKY/WX    TMP DP  RH WIND       PRES   REMARKS
PHILADELPHIA   FAIR      39  24  55 N5        30.42S
6HR MIN TEMP:  39; 6HR MAX TEMP:  49;

NORTH PHILA    FAIR      40  25  55 NW3       30.42S
BLUE BELL*     FAIR      32  28  86 CALM      30.42S
DOYLESTOWN     FAIR      32  25  75 SW3       30.39S
QUAKERTOWN*    CLEAR     30  25  80 CALM      30.40S
PERKASIE*      FAIR      32  25  74 NW3       30.40S
POTTSTOWN      FAIR      28  22  78 NW5       30.42S WCI  23
LANCASTER      FAIR      35  25  66 SW3       30.42R
COATESVILLE    FAIR      37  23  56 CALM      30.41S
READING        FAIR      35  26  69 NW6       30.41R WCI  30
6HR MIN TEMP:  34; 6HR MAX TEMP:  46;

ALLENTOWN      FAIR      31  23  72 SW5       30.40S WCI  26
6HR MIN TEMP:  31; 6HR MAX TEMP:  44;

MOUNT POCONO   FAIR      30  23  75 NW13      30.32S WCI  20
6HR MIN TEMP:  30; 6HR MAX TEMP:  34;

HAZLETON       FAIR      30  19  64 CALM      30.39S
LEHIGHTON      FAIR      30  27  86 CALM      30.41R
WILKES BARRE   FAIR      30  24  78 CALM      30.39R

$$
DEZALL-MDZ008-012-015-019-020-210700-
DELAWARE AND EASTERN MARYLAND

CITY           SKY/WX    TMP DP  RH WIND       PRES   REMARKS
WILMINGTON     FAIR      39  25  57 N3        30.42S
6HR MIN TEMP:  37; 6HR MAX TEMP:  50;

DOVER          FAIR      37  27  66 N6        30.41S WCI  33
GEORGETOWN     FAIR      42  29  59 CALM      30.42R
6HR MIN TEMP:  40; 6HR MAX TEMP:  53;

EASTON         FAIR      40  28  62 NE5       30.47R
ABERDEEN       FAIR      38  25  58 N5        30.44R WCI  35
PATUXENT       FAIR      47  32  56 NE13      30.41
OCEAN CITY     FAIR      44  29  55 N8        30.41R
WALLOPS ISLAND FAIR      38  36  92 NW5       30.40S WCI  34
CAMBRIDGE      CLEAR     43  27  52 NE7       30.42S
SALISBURY      FAIR      35  31  85 CALM      30.41R

$$
PAZ001-021-NYZ056-072-MDZ011-DCZ001-210700-
OTHER NEARBY LOCATIONS

CITY           SKY/WX    TMP DP  RH WIND       PRES   REMARKS
HARRISBURG     FAIR      38  28  67 N6        30.42R WCI  33
STATE COLLEGE  FAIR      36  23  59 CALM      30.40F
WILLIAMSPORT   FAIR      33  25  72 CALM      30.41S
BINGHAMTON     FAIR      31  21  66 NW5       30.34R WCI  26
NEW YORK CITY  FAIR      40  24  53 VRB3      30.39F
BALTIMORE      FAIR      42  26  53 NE6       30.43R
WASHINGTON DC  FAIR      47  29  49 NE10      30.44R

$$




USA.gov is the U.S. government's official web portal to all federal, state and local government web resources and services.